Location: Bu�n Treun
(12.1333°N, 108.3167°E)
Time: 23:34:29
(UTC+00:00)

Daily predictions for brighter satellites

Satellite Brightness Start Highest point End
(mag) Time Altitude Azimuth Time Altitude Azimuth Time Altitude Azimuth
USA 186 3.5 12:04:59 17° E 12:05:33 17° ENE 12:07:46 10° NE
SWIFT 2.7 12:02:52 10° SW 12:06:50 42° SSE 12:09:34 18° E
Meteor 1-21 Rocket 4.3 12:01:26 10° S 12:07:19 84° E 12:13:14 10° N
CSL-04 Rocket 3.7 12:03:37 10° SSE 12:09:09 90° ENE 12:14:37 10° NNW
Cosmos 2333 Rocket 2.6 12:05:19 10° SSW 12:10:55 67° WNW 12:16:33 10° N
CSL-04 Debris 4.3 12:06:13 10° S 12:11:40 81° WSW 12:17:09 10° NNW
BREEZE-M (TANK) 1.6 12:11:26 10° SW 12:13:41 75° NW 12:16:25 10° NE
H-2A R/B 2.3 12:09:32 10° SSE 12:14:51 57° ENE 12:20:10 10° N
Cosmos 1844 Rocket 4.1 12:14:58 10° NNE 12:18:40 18° ENE 12:19:44 17° E
Aurora 2 Rocket 4.1 12:12:43 10° WNW 12:19:13 64° NNE 12:25:48 20° E
Cosmos 2058 Rocket 4.0 12:15:05 10° NNW 12:19:22 50° W 12:23:38 10° SSW
CZ-2C R/B 3.2 12:13:54 10° SSE 12:19:39 77° ENE 12:25:10 10° N
Cosmos 1953 Rocket 4.2 12:26:05 30° ESE 12:26:47 32° E 12:30:38 10° NNE
Cosmos 1538 Rocket 4.1 12:21:25 10° SSW 12:26:48 86° WNW 12:32:09 10° NNE
GPS 2-15 Rocket1 3.6 12:22:13 10° W 12:26:56 49° SSW 12:29:08 29° SE
Cosmos 1745 Rocket 4.0 12:24:16 10° S 12:30:26 83° W 12:36:40 10° N
Milstar 3 Cent rocket 2.9 12:26:37 10° W 12:30:50 35° SSW 12:33:23 22° SSE
Cosmos 1703 3.1 12:27:14 10° S 12:31:06 85° E 12:34:58 10° N
ATLAS CENTAUR R/B 2.7 12:31:41 10° NNW 12:35:09 56° ENE 12:38:22 29° SE
Cosmos 1825 Rocket 3.4 12:32:49 10° S 12:37:14 83° E 12:41:40 10° N
Cosmos 1328 3.8 12:37:22 15° S 12:40:37 82° W 12:44:34 10° N
DMSP B5D2-2 4.2 12:35:51 10° N 12:41:01 73° WNW 12:46:13 10° SSW
Orbus 7S 4.3 12:39:29 10° W 12:41:48 27° SSW 12:41:53 27° SSW
USA 234 3.2 12:42:21 27° SSE 12:46:12 82° SW 12:52:46 10° NW
ISS -2.8 12:43:40 10° SW 12:46:55 48° NW 12:50:10 10° NNE
FREGAT/IRIS 4.3 12:48:35 23° N 12:48:35 23° N 12:49:44 10° N
ASTRO E2 3.0 12:44:04 10° WSW 12:48:00 63° NNW 12:49:26 35° NE
MOS 1 4.3 12:46:36 38° SE 12:48:38 61° ENE 12:54:11 10° N
SJ-6B 2.8 12:50:26 62° ENE 12:50:26 62° ENE 12:54:18 10° N
GPS 2-12 Rocket1 3.7 12:48:23 10° W 12:53:03 53° NNW 12:55:00 32° NE
IRS-1A Rocket 4.1 12:51:13 35° SSE 12:53:42 85° ENE 12:59:11 10° NNW
Ariane Rocket 2.9 12:51:34 35° S 12:53:46 87° WSW 12:58:51 10° NNW
Intelsat 5-1 Rocket 4.1 12:54:04 10° WSW 12:56:28 13° SW 12:57:09 13° SSW
MetOp-A 4.2 12:58:25 53° E 12:58:49 54° ENE 13:04:01 10° N
Cosmos-2242 4.4 12:59:10 10° NNE 13:01:27 27° NE 13:01:27 27° NE
Cosmos 1812 Rocket 4.0 13:01:38 10° NNW 13:05:52 59° W 13:06:39 50° SW
Cosmos 1980 3.9 13:01:01 10° SSW 13:06:37 70° WNW 13:12:14 10° N
Meteor 1-11 4.3 13:03:46 18° SSW 13:07:56 73° W 13:13:34 10° N
Meteor 2-10 Rocket 3.8 13:04:26 10° NNW 13:09:51 71° W 13:11:44 42° SSW
ARGOS 4.1 13:07:10 21° SSW 13:10:26 45° WSW 13:15:36 10° NNW
Cosmos 1709 Rocket 4.3 13:08:36 11° SSW 13:14:29 64° W 13:20:45 10° N
Atlas Centaur 2 3.5 13:11:21 10° NNW 13:15:31 26° NNE 13:16:03 26° NE
Cosmos 1680 Rocket 3.6 13:21:42 71° N 13:21:42 71° N 13:26:25 10° NNE
Cosmos 2237 Rocket 2.9 13:17:27 10° SSW 13:22:55 51° WNW 13:28:26 10° N
Cosmos 1455 3.9 13:21:35 10° NNW 13:24:15 33° WNW 13:24:15 33° WNW
OAO 3 Rocket 4.5 13:30:18 10° NW 13:33:30 37° NNW 13:33:30 37° NNW
Cosmos 1844 4.1 13:32:22 10° NNW 13:36:59 60° NNW 13:36:59 60° NNW
Cosmos 1844 Rocket 4.2 13:57:27 10° NW 14:01:27 30° W 14:01:27 30° W
Resurs 01 Rocket 4.4 14:08:19 15° NNW 14:08:19 15° NNW 14:09:08 10° NNW
H-2A ROCKET BODY 4.2 14:00:44 10° NW 14:07:05 56° NNE 14:10:58 46° ENE
CZ-3A R/B 3.9 14:19:31 10° W 14:30:35 41° WNW 14:30:35 41° WNW
CZ-3B R/B 4.5 19:31:13 46° WNW 19:34:25 53° NNW 19:41:04 10° NE
CZ-2C R/B 4.4 19:49:41 10° NE 19:52:44 21° E 19:52:44 21° E
CENTAUR R/B 3.0 19:59:36 44° NNE 19:59:36 44° NNE 20:03:37 10° NNE
SL-4 R/B 3.9 20:27:35 23° E 20:27:35 23° E 20:29:17 10° ENE
Ariane H10-3 3.9 20:28:26 30° SSE 20:28:36 30° SSE 20:39:39 10° E
ASC 2 Rocket 4.1 20:31:37 55° S 20:32:38 61° SSE 20:41:10 10° ENE
Cosmos 1271 Rocket 3.8 20:31:34 10° N 20:34:11 40° NNE 20:34:11 40° NNE
Skynet4D Del rocket 4.4 20:34:03 50° SW 20:36:25 76° SSE 20:44:04 10° ENE
SWIFT 3.2 20:38:46 42° SE 20:38:46 42° SE 20:41:42 10° ESE
Landsat 5 3.6 20:37:59 66° ENE 20:37:59 66° ENE 20:41:53 10° N
CZ-3 R/B 4.0 19:47:08 10° WNW 20:40:20 90° SW 20:51:09 10° ESE
Lacrosse 4 Rocket 4.4 20:42:11 10° SE 20:43:47 12° ESE 20:45:22 10° E
ATLAS 3B R/B 2.6 20:43:03 39° SSW 20:45:48 84° ESE 20:52:25 10° NNE
Cosmos 1486 Rocket 3.9 20:46:22 59° SW 20:47:14 72° WNW 20:52:30 10° N
Cosmos 1634 Rocket 4.1 20:43:56 22° S 20:48:17 79° E 20:54:35 10° N
ATLAS 5 CENTAUR R/B 3.7 20:43:39 10° N 20:49:58 47° ENE 20:56:48 10° SE
Cosmos 1980 Rocket 2.1 20:48:57 10° NNW 20:54:31 61° WSW 21:00:03 10° S
Delta 128 4.1 20:52:56 25° WNW 20:56:51 85° SSW 21:02:17 10° ESE
Palapa 6 Rocket 3.1 20:57:57 48° NW 20:58:38 55° NNW 21:03:04 10° ENE
ATLAS 2A CENTAUR R/B 3.7 21:00:29 10° N 21:01:36 11° NNE 21:03:03 10° NE
Okean 1 Rocket 4.3 20:58:45 10° SSE 21:02:56 41° E 21:07:02 10° NNE
COSMOS 2487 3.3 21:07:19 34° NW 21:07:19 34° NW 21:09:53 10° N
H-2A R/B 2.7 21:08:38 36° W 21:08:38 36° W 21:12:25 10° NW
deb Chang Zheng 4 4.3 21:04:54 10° NNW 21:08:43 32° WNW 21:08:45 32° WNW
ADEOS 3.8 21:08:15 10° N 21:13:16 51° WNW 21:15:57 26° SW
Cosmos 2278 4.4 21:08:41 10° NW 21:13:36 31° WSW 21:14:50 28° SW
ASTRO E2 3.1 21:10:59 14° NW 21:14:15 60° NNE 21:18:09 10° ESE
Meteor 1-31 Rocket 2.8 21:10:31 10° NNE 21:14:26 78° ESE 21:17:23 17° S
Cosmos 2279 Rocket 4.1 21:08:42 10° S 21:14:55 78° E 21:21:06 10° N
SL-16 R/B 3.4 21:11:23 10° N 21:16:47 45° ENE 21:22:09 10° SE
Okean 2 Rocket 4.2 21:17:03 25° W 21:17:03 25° W 21:20:29 10° NNW
GPS 2-17 Rocket1 3.9 21:15:42 27° SSW 21:17:46 42° SSE 21:22:17 10° E
Cosmos 1975 Rocket 3.6 21:16:01 10° NNW 21:20:05 36° W 21:21:51 26° SW
H-2A R/B 4.5 21:16:42 10° NE 21:20:06 26° E 21:23:26 10° SSE
Cosmos 2208 Rocket 4.2 21:15:01 10° N 21:20:18 74° ENE 21:25:30 10° SSE
Cosmos 1354 Rocket 3.9 21:16:56 18° SSW 21:20:53 74° WNW 21:26:10 10° N
Sylda 4400 4.1 21:19:36 26° WSW 21:21:57 41° S 21:24:58 10° ESE
IUS-13 SRM-1 1.5 21:23:07 33° W 21:24:12 64° NNW 21:26:07 10° ENE
CZ-4B R/B 1.4 21:22:33 10° SSE 21:25:57 88° ENE 21:29:24 10° N
NATO 3D Rocket 4.2 21:18:36 10° WNW 21:26:59 79° NNE 21:32:46 10° ESE
Cosmos 1484 Rocket 2.6 21:24:11 10° N 21:27:54 63° WNW 21:30:47 16° SSW
Cosmos 1814 Rocket 4.0 21:25:09 10° NNW 21:30:18 87° E 21:35:31 10° SSE
GPS 2-14 Rocket1 3.0 21:27:16 13° WNW 21:30:49 67° NNE 21:34:55 10° E
CZ-2C R/B 3.7 21:27:58 10° NNW 21:31:09 19° WNW 21:32:07 17° W
GPS 2-04 Rocket1 2.9 21:31:02 10° NW 21:34:48 70° NE 21:38:46 10° ESE
CZ-4B R/B 4.4 21:37:36 10° N 21:41:13 37° WNW 21:44:18 13° SW
FENGYUN 3A 3.8 21:37:26 10° N 21:42:44 58° WNW 21:48:01 10° SSW
Cosmos 2026 Rocket 3.9 21:40:15 10° N 21:46:16 74° W 21:52:19 10° S
CZ-3A R/B 2.8 21:42:36 10° WNW 21:46:46 70° SSW 22:02:56 10° ESE
Cosmos 1805 3.3 21:42:58 10° SSW 21:46:49 58° W 21:50:39 10° N
Centaur AC-72 3.6 21:41:22 10° WNW 21:47:06 51° N 21:55:56 10° E
Cosmos 2084 Rocket 3.8 21:46:07 13° SW 21:49:35 44° WNW 21:53:34 10° N
BREEZE-M DEB (TANK) 3.4 21:49:36 14° W 21:50:55 25° NW 21:53:41 10° NNE
GOES 2 Rocket 3.6 21:45:01 10° WNW 21:51:25 64° SSW 21:56:18 10° SE
ARIANE 5 R/B 3.5 21:51:36 10° SSW 21:53:46 19° SSE 21:58:21 10° ESE
Cosmos 1674 4.2 21:50:57 10° NNE 21:54:25 39° E 21:57:53 10° SSE
ADEOS Rocket 3.5 21:48:39 10° SSE 21:54:28 69° ENE 22:00:55 10° N
Cosmos 1437 4.4 21:53:21 10° NNE 21:56:06 35° E 21:58:52 10° SSE
ARIANE 44LP R/B 2.9 21:54:15 11° SW 21:56:20 21° S 21:58:03 10° SE
Cosmos 1092 Rocket 4.5 21:51:01 10° NNW 21:56:46 39° W 22:02:29 10° SSW
Cosmos 2322 Rocket 2.2 21:52:27 10° NNW 21:58:08 83° WSW 22:03:49 10° SSE
FALCON 9 DEB 4.1 21:56:37 11° WSW 21:59:39 32° NW 22:02:48 10° NNE
Meteor PRIRODA 4.1 21:58:53 10° N 22:02:19 40° WNW 22:05:47 10° SSW
Cosmos 1455 Rocket 3.8 21:58:37 10° S 22:02:51 57° E 22:07:04 10° NNE
ALOS 3.3 22:01:47 10° NNW 22:05:39 26° WNW 22:09:33 10° SW
PSLV R/B 3.9 22:02:27 10° N 22:06:32 79° WNW 22:10:34 10° SSW
Timation 2 Rocket 4.2 22:00:29 10° SSW 22:07:12 72° WNW 22:13:41 10° NNE
Cosmos 1025 Rocket 3.9 22:03:55 10° NNW 22:07:36 28° W 22:11:17 10° SSW
Cosmos 841 Rocket 4.5 22:04:10 10° NW 22:08:20 25° W 22:12:32 10° SSW
Cosmos 2297 Rocket 3.3 22:03:23 10° S 22:08:47 48° ESE 22:14:10 10° NNE
Cosmos 540 Rocket 4.4 22:05:09 10° NW 22:09:20 25° W 22:13:32 10° SSW
Cosmos 1655 Rocket 4.5 22:06:58 10° N 22:13:15 69° E 22:19:28 10° S
